Location: Star Hoppers Observatory
(42.7905°N, 83.6127°W)
Time: 13:41:16
(UTC-04:00)

NOSS 3-1 (A) - Visible Passes

Search period start: 25 June 2016 00:00
Search period end: 05 July 2016 00:00
Orbit: 856 x 1357 km, 63.4° (Epoch: 04 June)

Date Brightness Start Highest point End Pass type
(mag) Time Alt. Az. Time Alt. Az. Time Alt. Az.
25 Jun 4.4 00:53:18 10° WSW 00:59:03 46° NW 01:05:30 10° NNE visible
25 Jun 6.0 02:47:54 10° WNW 02:51:55 17° NNW 02:56:12 10° NNE visible
25 Jun 6.4 04:42:27 10° NNW 04:46:06 14° N 04:49:57 10° NE visible
25 Jun 4.6 22:20:05 11° SSE 22:24:05 21° ESE 22:28:33 10° ENE visible
26 Jun 3.7 00:08:16 10° SW 00:14:10 70° NW 00:20:48 10° NNE visible
26 Jun 5.9 02:01:50 10° WNW 02:06:27 21° NNW 02:11:28 10° NNE visible
26 Jun 6.4 03:57:13 10° NNW 04:00:26 13° N 04:03:50 10° NNE visible
26 Jun 3.3 23:23:35 10° SSW 23:29:28 77° ESE 23:36:01 10° NE visible
27 Jun 5.5 01:15:58 10° W 01:21:08 27° NNW 01:26:49 10° NNE visible
27 Jun 6.3 03:11:31 10° NW 03:14:46 14° N 03:18:12 10° NNE visible
27 Jun 6.4 05:04:04 10° NNW 05:08:56 19° NNE 05:14:08 10° ENE visible
27 Jun 3.6 22:39:20 10° S 22:44:55 47° ESE 22:51:05 10° NE visible
28 Jun 4.9 00:30:24 10° WSW 00:35:58 37° NW 00:42:10 10° NNE visible
28 Jun 6.2 02:25:29 10° NW 02:29:09 15° NNW 02:33:02 10° NNE visible
28 Jun 6.5 04:19:19 10° NNW 04:23:23 16° NNE 04:27:42 10° NE visible
28 Jun 4.2 21:55:37 10° SSE 22:00:32 28° ESE 22:05:52 10° NE visible
28 Jun 4.2 23:45:09 10° SW 23:50:59 54° NW 23:57:32 10° NNE visible
29 Jun 6.1 01:39:22 10° WNW 01:43:37 18° NNW 01:48:12 10° NNE visible
29 Jun 6.5 03:34:18 10° NNW 03:37:45 14° N 03:41:22 10° NE visible
29 Jun 3.5 23:00:15 10° SW 23:06:10 82° NW 23:12:48 10° NE visible
30 Jun 5.9 00:53:22 10° W 00:58:13 23° NNW 01:03:30 10° NNE visible
30 Jun 6.5 02:48:54 10° NNW 02:52:05 13° N 02:55:25 10° NNE visible
30 Jun 6.4 04:40:45 10° NNW 04:46:08 21° NNE 04:51:53 10° ENE visible
30 Jun 3.4 22:15:44 10° SSW 22:21:31 64° ESE 22:27:58 10° NE visible
01 Jul 5.4 00:07:37 10° W 00:12:57 30° NW 00:18:52 10° NNE visible
01 Jul 6.5 02:03:03 10° NW 02:06:26 14° N 02:09:59 10° NNE visible
01 Jul 6.5 03:56:05 10° NNW 04:00:39 17° NNE 04:05:30 10° ENE visible
01 Jul 4.8 23:22:09 10° WSW 23:27:52 42° NW 23:34:13 10° NNE visible
02 Jul 6.4 01:16:57 10° NW 01:20:50 16° NNW 01:24:59 10° NNE visible
02 Jul 6.6 03:11:15 10° NNW 03:15:04 15° NNE 03:19:03 10° NE visible
02 Jul 6.0 05:02:00 10° NNW 05:08:31 33° NE 05:15:37 10° E visible
02 Jul 4.0 22:37:02 10° SW 22:42:57 63° NW 22:49:33 10° NNE visible
03 Jul 6.2 00:30:52 10° WNW 00:35:21 20° NNW 00:40:12 10° NNE visible
03 Jul 6.7 02:26:07 10° NNW 02:29:24 14° N 02:32:51 10° NNE visible
03 Jul 6.3 04:17:25 10° NNW 04:23:16 25° NNE 04:29:34 10° E visible
03 Jul 3.5 21:52:17 10° SSW 21:58:12 85° ESE 22:04:48 10° NE visible
03 Jul 5.8 23:44:57 10° W 23:50:00 25° NNW 23:55:32 10° NNE visible
04 Jul 6.7 01:40:31 10° NNW 01:43:44 13° N 01:47:06 10° NNE visible
04 Jul 6.6 03:32:48 10° NNW 03:37:51 20° NNE 03:43:16 10° ENE visible
04 Jul 5.0 05:23:14 10° NNW 05:30:33 54° NE 05:38:33 10° ESE visible
04 Jul 5.3 22:59:18 10° WSW 23:04:48 34° NW 23:10:55 10° NNE visible
